EW1697 Weather Reports


time (UTC)temp
F
wind
direction
speed
knots
gust
knots
rain 1hr
in
rain 24hr
in
rain mn
in
humidity
%
barometer
mb
20260506061547 48 160 0.0 0.0 0.00 0.00 0.00 90 1018.3
20260506044536 51 163 0.0 0.0 0.00 0.00 0.00 86 1017.7
20260506043031 52 158 0.0 0.9 0.00 0.00 0.00 87 1017.5
20260506041529 51 158 0.0 0.9 0.00 0.00 0.00 86 1017.4
20260506040041 52 158 0.0 0.0 0.00 0.00 0.00 84 1017.2
20260506034526 54 158 0.0 0.9 0.00 0.00 0.00 84 1017.1
20260506033027 54 203 0.0 0.0 0.00 0.00 0.00 82 1016.7
20260506031522 55 203 0.0 0.0 0.00 0.00 0.00 81 1016.3
20260506030022 56 300 0.0 1.7 0.00 0.00 0.00 80 1016.1
20260506024528 57 264 0.0 0.9 0.00 0.00 0.00 79 1015.9
20260506023020 57 330 0.0 2.6 0.00 0.00 0.00 78 1016.0
20260506021538 58 312 0.0 4.3 0.00 0.00 0.00 76 1015.9
20260506020020 60 261 0.9 5.2 0.00 0.00 0.00 73 1015.8
20260506014523 61 309 0.0 3.5 0.00 0.00 0.00 70 1015.7
20260506013018 62 254 0.0 2.6 0.00 0.00 0.00 69 1015.7
20260506011523 60 342 0.0 4.3 0.00 0.00 0.00 71 1015.7
20260506010014 60 284 0.0 4.3 0.00 0.00 0.00 71 1015.7
20260506004512 61 234 0.9 3.5 0.00 0.00 0.00 70 1015.7
20260506003012 61 20 0.9 3.5 0.00 0.00 0.00 68 1015.6
20260506001513 61 194 0.0 1.7 0.00 0.00 0.00 68 1015.6
20260506000008 61 352 0.0 2.6 0.00 0.00 0.00 68 1015.5
20260505234513 61 158 0.0 4.3 0.00 0.00 0.00 69 1015.5
20260505233008 61 34 0.9 3.5 0.00 0.00 0.00 67 1015.6
20260505231508 62 322 0.0 3.5 0.00 0.00 0.00 67 1015.5
20260505230007 62 344 0.0 3.5 0.00 0.00 0.00 67 1015.4
20260505224510 62 304 0.0 2.6 0.00 0.00 0.00 66 1015.6
20260505223007 62 219 0.0 2.6 0.00 0.00 0.00 68 1015.9
20260505221505 60 23 0.0 2.6 0.00 0.00 0.00 69 1015.9
20260505220004 61 350 0.0 3.5 0.00 0.00 0.00 68 1015.9
20260505214502 61 6 0.9 5.2 0.00 0.00 0.00 68 1016.0
20260505213100 61 17 0.9 7.0 0.00 0.00 0.00 66 1016.1
20260505211634 62 19 0.9 5.2 0.00 0.00 0.00 66 1016.1
20260505210057 61 322 1.7 5.2 0.00 0.00 0.00 66 1016.0
20260505204557 61 326 0.0 6.1 0.00 0.00 0.00 65 1016.1
20260505203119 62 334 0.0 1.7 0.00 0.00 0.00 66 1016.2
20260505201552 62 9 0.0 4.3 0.00 0.00 0.00 65 1016.1
20260505200050 61 1 0.9 4.3 0.00 0.00 0.00 67 1016.1
20260505194550 61 341 0.0 4.3 0.00 0.00 0.00 67 1016.4
20260505193149 61 283 0.0 1.7 0.00 0.00 0.00 68 1016.2
20260505191551 59 337 0.0 2.6 0.00 0.00 0.00 71 1016.3
20260505190046 58 161 0.0 1.7 0.00 0.00 0.00 71 1016.4
20260505184550 57 251 0.0 2.6 0.00 0.00 0.00 74 1016.3
20260505183048 57 262 0.0 1.7 0.00 0.00 0.00 73 1016.5
20260505181543 56 303 0.0 3.5 0.00 0.00 0.00 74 1016.3
20260505180045 57 292 0.0 2.6 0.00 0.00 0.00 72 1016.2
20260505174537 58 328 0.0 3.5 0.00 0.00 0.00 69 1015.9
20260505173036 60 133 0.0 3.5 0.00 0.00 0.00 67 1015.6
20260505171534 60 223 0.9 3.5 0.00 0.00 0.00 67 1015.6
20260505170036 58 333 0.0 1.7 0.00 0.00 0.00 69 1015.7
20260505164528 58 58 0.0 1.7 0.00 0.00 0.00 70 1015.6
20260505163028 57 335 0.0 3.5 0.00 0.00 0.00 69 1015.7
20260505161520 56 11 0.0 2.6 0.00 0.00 0.00 73 1015.4
20260505153012 54 316 0.0 0.9 0.00 0.00 0.00 74 1015.6
20260505151509 53 342 0.0 1.7 0.00 0.00 0.00 75 1015.3
20260505124600 52 355 0.0 1.7 0.00 0.00 0.00 82 1014.7
20260505123055 52 231 0.0 0.9 0.00 0.00 0.00 81 1014.6
20260505121553 52 308 0.0 2.6 0.00 0.00 0.00 82 1014.7
20260505120106 52 84 0.0 1.7 0.00 0.00 0.00 83 1014.8
20260505114554 52 311 0.0 0.0 0.00 0.00 0.00 83 1014.5
20260505113052 52 311 0.0 0.0 0.00 0.00 0.00 83 1014.5
20260505111548 52 311 0.0 0.0 0.00 0.00 0.00 82 1014.6
20260505101543 53 332 0.0 0.0 0.00 0.00 0.00 82 1014.7
20260505100039 52 332 0.0 0.9 0.00 0.00 0.00 82 1014.7
20260505094537 52 354 0.0 0.0 0.00 0.00 0.00 82 1014.8
20260505093046 52 6 0.0 0.9 0.00 0.00 0.00 81 1014.9
20260505091535 52 349 0.0 0.0 0.00 0.00 0.00 81 1015.0
20260505090034 52 349 0.0 0.0 0.00 0.00 0.00 80 1014.9
20260505084535 52 349 0.0 0.0 0.00 0.00 0.00 80 1014.9
20260505083031 52 349 0.0 0.0 0.00 0.00 0.00 80 1015.0
20260505081529 52 349 0.0 0.0 0.00 0.00 0.00 79 1015.1
20260505080031 52 350 0.0 0.0 0.00 0.00 0.00 79 1015.2
20260505074525 53 350 0.0 0.0 0.00 0.00 0.00 78 1015.2
20260505073023 53 349 0.0 0.0 0.00 0.00 0.00 78 1015.1
20260505071520 53 347 0.0 0.9 0.00 0.00 0.00 76 1015.2
20260505070023 53 347 0.0 0.0 0.00 0.00 0.00 75 1015.2
20260505064517 53 342 0.0 0.9 0.00 0.00 0.00 75 1015.2
20260505063016 53 321 0.0 0.0 0.00 0.00 0.00 74 1015.2